Wind_Speed
47 48 47 47 48 48 47 46 46 46 46 44 42 41 40 39 37 35 33 31 31 32 31 31 31 30 30 28 28 27 26 26 26 27 27 28 28 28 28 28 29 30 30 30 31 33 34 35 35 36 37 37 37 36 34 31 30 31 34 35 35 34 34 34 34 35 35 36 37 37 36 35 35 34 34 35 36 37 39 40 41 43 44 44 44
48 48 47 46 47 47 46 45 44 44 43 41 41 41 41 40 39 38 36 34 34 33 32 31 31 32 32 31 30 30 29 29 30 31 31 30 30 30 30 30 30 30 30 31 32 34 35 36 36 36 36 37 37 36 34 31 29 30 32 32 32 32 32 33 33 33 33 33 34 35 35 34 34 34 36 38 40 41 43 44 46 47 47 48 48
50 50 48 47 47 47 45 43 44 45 45 44 43 42 42 43 42 41 40 39 37 34 33 34 34 34 34 33 32 32 32 32 33 34 33 33 32 32 31 32 31 31 31 31 33 35 36 37 36 36 36 36 36 35 33 31 31 31 30 30 30 31 31 32 34 34 32 30 30 30 32 33 35 37 40 42 44 46 48 50 51 52 52 52 51
48 50 49 48 47 47 45 43 42 44 46 46 46 45 46 46 45 44 43 42 39 37 36 36 36 35 35 34 33 33 34 35 35 35 35 34 33 33 34 34 33 32 31 32 34 35 37 37 36 36 36 36 36 35 34 33 33 32 32 32 32 32 32 33 35 36 34 32 31 32 34 36 39 41 44 46 48 50 52 55 56 57 56 56 55
45 47 48 48 47 45 44 43 42 43 43 44 44 46 47 46 45 43 41 40 38 36 36 36 36 36 36 36 36 37 38 38 37 36 35 34 34 35 36 36 34 33 32 34 35 36 36 36 36 36 36 37 37 37 36 36 34 35 36 37 36 36 36 35 36 37 37 36 36 36 38 40 42 45 47 49 51 54 56 58 60 60 61 61 60
45 44 44 45 46 46 46 45 45 45 45 44 44 46 47 45 44 43 40 38 36 36 36 37 38 39 41 42 42 43 42 40 38 37 36 35 36 37 37 36 35 35 35 36 36 36 36 36 35 35 37 38 39 40 40 39 39 40 41 40 39 39 39 38 39 39 39 39 39 40 41 43 46 48 51 53 55 58 60 62 63 64 64 64 64
43 43 41 41 42 44 45 45 44 45 45 45 45 45 45 45 44 44 43 41 39 39 39 40 42 44 45 45 45 44 43 41 39 38 37 37 37 38 38 37 37 37 39 38 37 36 35 35 34 33 35 39 41 42 43 43 44 45 44 42 41 40 41 41 41 41 42 43 43 43 44 47 49 51 53 56 59 62 63 65 66 66 66 67 66
39 41 43 43 43 43 42 41 41 40 40 41 41 42 43 43 43 43 42 41 40 40 41 41 41 43 44 44 43 41 40 39 38 38 37 37 38 38 38 39 40 42 41 38 36 36 35 35 33 32 35 38 39 41 43 46 47 47 45 44 42 42 42 42 43 44 45 45 46 47 49 51 52 54 56 60 63 65 67 68 68 68 69 69 67
36 39 43 45 46 45 44 43 40 38 39 41 41 42 42 43 43 42 40 38 38 38 38 37 37 38 40 41 41 40 39 39 39 39 38 38 38 39 41 43 45 45 42 38 36 36 36 36 36 37 40 42 42 44 46 48 49 48 46 45 44 43 44 44 45 45 46 48 49 50 52 55 57 59 62 65 67 68 69 70 71 70 70 71 69
32 35 40 42 43 44 42 41 39 39 41 43 42 40 41 42 42 41 40 39 39 38 37 36 35 36 39 41 41 41 42 41 40 40 40 40 41 43 46 47 47 44 41 39 38 38 39 40 41 43 45 47 48 49 50 49 48 48 47 45 45 45 46 46 47 47 48 50 52 54 57 60 63 66 68 70 70 70 71 72 72 73 73 72 70
33 35 38 38 39 39 38 38 39 40 42 43 42 40 40 41 41 41 41 41 40 38 37 37 36 37 39 41 42 43 44 43 43 43 44 45 47 49 49 48 47 45 43 42 41 41 41 43 44 46 48 50 52 52 51 49 49 48 48 47 47 47 48 49 49 51 53 55 58 62 65 68 70 71 72 72 72 72 73 73 74 74 74 72 69
39 40 39 37 37 37 37 39 42 44 45 45 44 43 41 41 43 44 44 44 42 39 38 40 41 41 43 44 45 47 48 48 49 50 51 52 52 51 50 49 47 46 45 45 45 45 45 46 48 49 51 52 53 52 51 50 49 49 49 49 49 50 51 53 56 59 63 66 68 70 72 73 73 73 74 74 74 75 75 75 75 74 73 71 69
42 44 43 42 42 42 42 43 46 47 47 47 47 46 46 46 46 46 45 43 41 40 42 44 45 46 48 49 50 51 52 53 54 55 55 54 53 52 51 50 49 48 48 48 48 49 49 50 50 51 52 53 52 52 51 51 51 52 52 52 53 54 58 62 66 69 71 72 73 74 75 76 76 76 77 77 78 78 77 77 75 74 72 71 70
43 44 45 46 46 47 48 50 51 52 52 52 51 52 52 50 49 48 45 42 42 43 45 46 47 49 50 51 52 52 53 53 54 54 55 55 54 53 52 51 51 50 50 49 49 49 50 50 51 52 53 54 54 53 53 53 54 56 57 58 60 63 68 71 73 74 74 75 76 76 77 78 79 80 81 81 81 79 78 77 75 74 73 71 70
43 44 44 45 46 48 50 52 53 54 55 55 54 53 51 50 50 51 49 47 46 46 47 48 49 50 52 53 53 53 54 54 54 54 54 54 53 52 51 51 50 50 50 51 51 52 52 53 53 54 55 55 55 55 55 57 60 62 64 66 69 72 75 76 76 77 77 78 79 79 80 81 82 83 83 81 79 78 78 77 76 75 74 73 71
45 45 43 44 46 46 46 47 49 51 52 52 50 50 49 50 52 53 51 50 49 48 49 51 51 52 53 54 55 55 54 54 54 53 52 51 50 49 49 50 50 51 52 53 54 55 57 57 58 58 58 57 58 59 61 64 67 69 71 74 76 78 79 79 79 80 81 81 82 82 83 83 82 82 80 78 77 78 78 78 77 77 76 74 73
47 46 44 44 45 45 45 46 47 49 50 50 50 51 52 52 54 55 54 53 53 53 53 54 54 54 54 55 55 55 54 53 51 51 51 50 51 51 52 53 54 55 55 56 57 58 59 60 60 60 61 63 65 68 70 73 75 77 79 80 81 81 82 82 82 83 83 83 82 82 81 80 79 78 77 77 80 81 79 77 78 78 76 74 73
49 48 47 47 48 48 48 49 49 49 50 50 52 55 57 58 59 59 59 58 57 57 57 56 56 56 56 56 57 57 57 57 57 58 58 58 58 59 59 59 60 61 60 60 61 62 64 65 65 66 69 72 75 77 79 80 81 82 83 83 84 84 85 85 85 84 83 83 82 81 79 77 76 76 78 81 83 83 81 80 80 79 77 75 75
53 52 51 51 50 50 50 50 51 51 50 50 52 55 58 60 61 61 61 60 59 59 58 58 58 58 58 59 59 60 60 61 62 63 63 63 63 63 63 63 64 65 66 66 68 69 70 72 73 74 76 79 81 82 83 84 85 86 86 87 87 88 89 89 88 87 85 84 84 82 78 76 77 80 83 85 85 84 84 84 83 82 80 78 78
57 56 56 55 53 52 52 53 53 54 54 54 54 56 57 59 60 59 58 58 58 58 58 58 58 58 59 60 61 62 62 63 63 64 64 65 65 65 66 67 68 69 70 72 73 74 75 76 77 79 81 83 84 86 86 87 88 89 91 91 91 92 91 91 91 90 88 87 86 85 82 82 84 86 86 86 86 87 87 87 86 86 84 82 82
62 61 61 60 59 58 57 57 56 57 58 58 59 59 59 59 60 59 58 57 57 57 57 57 57 57 57 58 60 61 61 62 62 63 63 65 66 67 68 69 71 72 73 75 76 77 78 79 81 84 87 88 89 89 90 91 92 92 93 94 94 94 93 93 92 91 90 89 87 87 87 87 88 87 86 88 89 89 90 90 89 89 88 87 86
65 65 65 65 65 65 64 63 62 62 61 61 61 61 61 62 62 62 61 61 60 59 60 60 60 59 60 60 61 62 63 64 65 66 67 68 70 71 72 74 75 76 77 79 81 83 84 85 85 88 91 92 92 92 93 93 94 94 95 96 96 96 95 94 93 92 91 91 90 89 88 88 88 87 88 91 91 90 91 93 92 92 92 91 90
67 67 67 68 68 67 67 67 67 66 65 64 63 63 63 64 65 65 66 65 65 64 64 65 66 66 67 68 69 70 71 72 72 73 73 74 75 76 78 79 80 82 83 85 86 87 88 88 88 90 92 93 94 95 96 96 97 97 98 98 98 98 96 95 93 93 92 92 92 92 92 92 92 91 92 94 94 92 93 95 95 95 95 94 93
71 70 70 70 70 69 68 67 66 67 67 67 67 66 65 65 65 65 66 67 68 68 68 69 70 71 72 74 75 76 76 76 76 77 77 78 80 81 82 84 85 87 87 88 89 89 90 91 92 93 94 95 96 97 99 99 100 99 99 99 98 97 95 94 94 94 94 95 95 96 96 96 98 98 97 97 97 96 95 96 97 98 98 97 96
75 74 73 73 73 72 70 69 68 68 68 68 69 70 70 69 69 68 68 68 69 71 71 72 73 74 75 76 77 77 78 78 79 80 81 83 84 85 86 87 88 89 90 90 91 92 93 95 96 97 98 99 99 100 101 101 101 100 99 98 97 95 94 94 95 97 98 98 99 100 100 101 103 103 101 100 100 100 98 97 98 98 98 98 97
79 79 78 76 75 75 74 73 72 71 70 70 70 70 71 71 72 72 72 73 73 74 74 75 76 77 78 79 80 81 82 83 84 86 87 88 89 89 90 90 91 92 93 94 95 97 98 100 101 102 102 103 103 102 102 101 100 99 99 98 97 96 97 98 100 102 102 103 103 103 104 104 106 106 104 103 103 103 100 98 97 97 97 97 97
78 80 81 80 79 79 79 78 78 78 77 76 75 75 74 75 75 76 77 78 79 80 81 81 83 84 85 85 86 88 89 89 90 91 92 92 92 92 93 93 94 95 97 98 100 102 103 104 105 105 105 104 103 102 100 99 98 98 98 99 99 100 102 104 105 107 107 107 107 107 107 107 107 107 106 105 104 103 100 98 96 96 96 97 96
78 79 80 82 83 83 83 83 84 84 84 84 83 83 83 83 84 84 85 86 86 86 87 88 89 89 90 91 92 93 93 93 93 94 94 95 95 96 97 98 99 100 102 103 104 104 105 104 104 104 103 103 102 101 100 100 100 101 102 103 104 105 107 108 109 110 111 110 110 109 108 108 108 108 107 105 104 102 100 97 96 96 95 95 95
80 80 80 81 82 84 84 85 86 86 86 87 87 87 87 88 88 88 89 89 89 89 89 89 90 90 92 93 95 95 95 96 96 97 98 98 99 100 101 102 103 104 104 104 104 104 103 102 102 102 102 102 103 103 104 105 106 107 107 108 108 109 110 110 111 111 111 111 110 109 108 107 107 107 105 103 102 101 99 97 96 94 93 92 91
84 83 83 83 83 83 84 85 86 86 87 88 88 88 89 89 89 89 89 90 90 91 92 93 94 96 97 98 99 99 99 100 100 101 101 102 102 103 104 104 104 104 103 103 102 102 102 102 102 103 104 105 106 107 108 109 110 111 111 111 111 111 111 111 111 110 110 110 109 108 107 105 105 104 102 101 100 99 96 94 93 91 90 88 86
86 86 86 86 87 87 87 87 87 88 89 90 91 92 92 93 93 93 94 94 95 96 97 98 99 100 100 101 101 102 103 103 104 104 104 104 104 104 104 104 103 102 101 101 102 102 104 105 106 107 108 109 110 111 112 112 113 113 113 113 112 111 110 110 109 109 109 108 107 106 104 102 101 99 98 96 95 93 91 89 88 86 85 84 82
91 90 90 90 90 90 90 91 91 91 92 93 93 94 95 95 96 96 97 98 99 99 100 100 100 101 101 102 103 104 105 105 105 105 105 104 103 102 102 101 100 100 101 103 104 106 108 109 111 112 112 113 113 114 114 113 113 112 112 111 111 111 110 109 107 106 106 105 103 101 99 97 95 93 91 90 88 86 84 83 82 80 79 78 77
96 95 95 94 94 94 94 94 94 95 95 95 95 96 96 97 97 98 99 99 100 100 100 101 101 102 103 104 105 105 105 104 103 102 101 100 100 99 99 100 101 103 105 107 109 111 112 114 115 115 115 115 115 115 114 113 112 111 111 110 110 109 108 106 104 101 100 99 98 95 92 90 89 88 86 84 83 81 78 77 76 74 73 73 73
98 98 98 98 98 98 97 97 97 97 97 97 98 98 98 98 99 99 100 100 101 101 102 102 103 104 104 104 104 104 103 102 101 101 101 101 101 102 104 105 107 109 110 112 113 115 116 117 117 117 117 116 115 114 113 113 112 111 110 108 106 105 104 102 100 97 94 93 91 88 86 85 84 83 81 79 77 75 73 72 70 69 68 68 68
96 98 99 100 100 100 100 100 100 100 100 100 100 100 100 101 101 101 101 102 102 102 103 103 104 104 103 103 102 102 102 103 103 104 106 106 107 108 109 110 111 113 114 115 116 117 117 118 118 117 116 115 114 114 114 113 111 109 106 104 102 101 99 98 95 92 89 86 84 82 80 78 77 76 75 73 71 70 69 67 66 66 65 65 64
92 94 96 97 98 99 99 100 100 100 100 100 100 100 100 100 101 101 101 102 102 102 102 103 103 103 103 103 103 104 104 105 106 107 108 109 110 111 112 113 114 115 116 117 117 118 118 117 117 117 116 116 115 114 112 110 108 105 103 101 99 97 95 92 90 87 84 81 79 76 74 72 71 70 69 67 66 65 65 64 64 63 62 61 60
90 91 93 94 95 96 97 97 98 98 98 98 99 99 99 99 99 99 100 100 101 101 101 101 102 103 103 104 105 106 106 107 108 109 110 111 112 113 114 115 116 117 117 118 118 118 118 118 118 117 116 115 112 110 108 106 105 103 101 98 95 92 89 86 84 81 79 76 74 72 70 69 68 66 64 62 62 61 61 61 61 60 58 56 56
92 92 92 93 94 95 96 97 97 97 97 98 98 99 99 99 99 99 99 100 100 101 101 102 102 103 105 106 107 107 108 109 110 111 112 113 114 115 116 117 118 118 119 119 119 119 119 118 117 115 113 111 109 107 106 104 101 99 95 92 89 86 83 80 78 76 74 72 70 69 68 66 64 62 60 59 58 58 58 57 57 55 54 53 53
93 93 94 94 95 95 96 97 97 98 98 98 99 99 100 100 100 100 101 101 102 102 102 103 104 105 106 107 108 109 110 111 112 113 114 115 116 117 118 118 119 119 119 119 119 118 116 115 113 111 109 108 106 103 100 97 94 91 87 85 82 79 77 75 74 72 70 68 66 66 65 64 61 59 57 55 54 54 54 53 52 52 51 50 50
94 94 95 95 96 97 97 98 98 99 99 100 100 101 101 102 102 102 103 103 104 104 105 106 107 108 108 109 110 111 112 113 114 115 116 116 117 118 118 119 119 118 118 117 115 114 112 111 109 107 105 102 99 95 92 89 86 83 80 78 76 74 73 72 70 68 66 64 63 62 62 61 58 56 54 51 50 50 50 49 49 49 48 47 47
97 97 97 98 98 99 99 99 100 100 101 102 102 103 103 104 104 105 105 106 106 107 108 108 109 110 111 111 112 112 113 114 114 115 116 116 117 117 117 116 116 115 114 113 112 111 109 106 103 100 96 93 90 87 84 82 79 77 75 73 71 70 69 68 66 65 63 61 59 59 59 58 55 53 51 49 48 48 47 47 47 46 45 45 44
98 99 99 100 101 101 101 102 102 103 103 104 104 105 105 106 106 106 107 107 108 109 109 110 110 111 111 112 112 113 113 114 114 114 114 114 114 114 113 113 113 112 111 109 107 104 101 97 94 91 88 85 82 80 78 76 74 72 71 69 67 66 66 65 63 62 60 58 56 56 56 54 52 50 48 47 46 46 45 45 45 44 43 42 42
99 100 100 101 102 102 103 103 103 104 104 105 105 106 106 107 107 107 108 108 109 109 110 110 111 111 111 111 112 112 112 112 112 112 111 111 111 111 110 109 108 106 104 100 97 94 91 88 85 83 81 79 77 75 73 71 69 68 66 65 63 63 63 62 60 59 57 55 54 53 52 51 49 48 46 45 45 44 44 43 43 42 42 41 41
97 98 100 101 102 103 103 104 104 105 105 105 106 106 107 107 107 107 108 108 109 109 109 110 110 110 110 110 110 110 110 110 110 110 109 108 107 105 103 101 98 96 93 90 88 85 83 80 78 77 75 73 72 70 69 67 65 64 62 61 60 60 60 59 57 56 54 53 51 51 50 48 47 46 45 44 43 43 43 42 42 41 41 40 40
91 93 95 97 99 100 101 103 103 104 105 105 106 106 106 107 107 107 107 108 108 108 109 109 109 109 109 109 108 108 107 107 105 104 102 100 97 95 93 90 88 86 84 82 80 78 76 74 73 72 70 69 67 66 64 63 62 60 59 57 57 57 57 55 53 52 52 50 49 49 48 47 45 44 43 43 42 42 41 41 41 41 40 40 40
86 87 89 91 92 94 96 97 99 100 101 102 102 103 104 104 104 105 105 105 105 105 105 105 105 104 104 103 102 101 99 97 96 94 92 90 88 86 84 82 79 78 77 75 74 72 71 70 69 67 65 64 63 61 60 59 58 57 55 54 54 54 54 52 50 50 50 48 47 46 46 45 44 43 42 42 42 41 41 41 40 40 40 40 40
82 84 85 86 87 89 90 91 92 93 94 95 96 97 97 98 98 99 99 99 99 98 98 97 96 96 94 93 92 90 89 88 86 85 83 81 80 78 76 75 73 71 70 69 68 67 66 65 64 62 61 60 59 57 56 55 55 54 52 51 51 51 51 50 48 48 47 46 45 44 44 43 43 42 41 41 41 41 40 39 39 39 39 40 40
79 81 82 82 83 84 85 86 86 87 87 88 89 89 90 90 91 91 91 91 90 90 89 88 87 86 85 84 83 82 81 80 78 77 76 75 73 72 71 69 67 66 65 64 63 62 61 61 59 58 57 56 55 54 52 52 51 50 50 49 49 48 48 48 47 46 45 45 44 43 42 42 42 41 41 40 40 39 39 38 38 38 38 39 38
75 76 77 78 79 80 80 81 81 82 82 82 83 83 83 84 84 84 84 83 83 82 81 80 79 79 78 77 76 75 74 73 72 71 70 69 68 66 65 64 62 61 60 60 59 58 57 56 55 54 54 53 52 51 50 49 48 48 47 47 47 46 46 46 45 44 44 43 42 42 41 41 41 40 40 39 39 38 37 37 36 37 37 37 37
70 71 72 73 74 75 75 76 77 77 77 78 78 78 79 79 79 78 77 77 76 76 75 74 74 73 72 71 71 69 68 68 67 65 64 63 62 61 61 60 58 57 57 56 55 54 53 52 51 51 51 50 49 49 48 47 46 45 45 44 44 44 44 43 43 43 42 41 41 40 40 40 39 39 38 38 37 36 36 36 35 35 36 36 36
65 66 67 68 69 70 71 72 72 73 73 73 74 74 74 74 73 73 72 71 71 71 70 70 69 68 67 66 65 64 63 62 61 60 59 58 58 57 57 56 55 54 53 53 52 51 50 49 49 48 48 47 47 46 46 45 44 43 42 42 42 41 41 41 41 41 40 40 39 39 39 38 37 37 37 36 35 35 35 35 34 34 34 35 35
Wind_Direction
219 221 224 228 231 235 238 241 244 246 249 251 251 251 251 252 256 261 266 270 272 274 276 274 273 270 268 269 272 274 275 277 279 281 282 282 283 280 275 270 268 266 266 265 264 263 263 262 261 259 259 259 259 260 261 261 262 266 270 274 277 279 279 279 281 282 282 279 275 271 269 270 275 284 294 301 305 307 309 309 308 308 308 308 307
224 226 229 232 234 236 239 243 246 247 248 250 251 251 251 252 257 262 267 270 273 275 275 274 272 271 271 271 273 274 274 277 280 283 284 285 286 283 279 275 273 272 272 272 270 268 266 265 263 261 260 260 260 262 263 264 267 272 274 276 277 278 278 278 280 285 286 282 276 271 270 274 282 293 300 304 308 310 312 313 314 313 312 310 309
227 230 232 234 237 239 242 246 248 249 249 251 252 253 253 256 260 264 268 271 272 274 274 273 273 272 271 270 272 273 275 278 281 284 285 286 286 284 280 278 276 276 276 276 275 273 270 268 264 262 260 260 262 263 262 265 273 278 278 277 276 277 277 278 281 286 288 286 282 278 279 284 292 298 303 306 309 311 313 313 314 315 315 313 310
232 232 233 235 238 241 245 248 250 251 251 251 253 255 257 260 263 265 267 269 271 272 272 273 273 271 269 270 271 274 276 279 282 284 286 286 284 281 280 280 278 277 278 279 278 276 273 271 268 264 262 263 264 261 261 268 276 280 281 280 279 279 279 279 281 285 288 289 288 287 286 289 294 300 304 307 309 310 311 312 312 313 314 313 311
236 236 236 236 238 240 243 247 251 253 254 254 257 259 260 261 263 264 266 268 270 270 270 270 269 268 268 271 273 276 279 281 283 284 284 282 279 278 278 279 278 277 280 283 282 278 274 272 269 266 264 263 260 258 262 270 277 283 285 283 282 282 282 282 282 285 288 290 290 288 287 289 294 299 303 306 308 308 309 310 310 311 312 311 311
237 241 242 241 241 241 242 245 249 252 255 257 259 259 260 261 263 264 265 265 266 266 266 267 267 270 273 275 277 280 282 283 284 284 283 279 276 275 275 276 275 276 281 285 283 278 274 270 269 267 264 260 257 259 266 272 278 286 288 286 285 285 285 286 287 287 289 292 292 290 290 291 295 299 303 305 307 307 307 307 308 308 309 309 310
236 242 244 244 244 245 245 247 250 253 254 254 255 257 260 262 263 265 265 264 263 264 265 267 271 275 277 280 283 284 284 284 284 283 281 277 274 273 272 272 273 278 284 285 281 276 272 268 266 265 264 262 261 264 270 275 281 288 290 288 289 289 289 291 291 291 292 294 294 294 293 295 297 300 302 303 305 305 304 304 305 306 306 307 308
233 239 242 243 245 248 250 251 253 254 252 250 253 257 261 262 264 265 265 265 265 267 269 272 275 278 278 280 285 284 282 282 281 279 278 275 272 270 269 271 275 281 286 284 278 274 269 264 262 262 265 266 267 271 276 280 285 289 290 291 293 294 294 294 292 291 292 293 293 294 295 297 299 301 301 301 301 301 301 301 302 303 304 305 306
230 236 241 243 245 249 252 254 254 251 249 251 255 258 259 261 263 264 265 266 269 272 273 273 274 275 274 276 279 278 276 276 276 275 273 271 270 269 271 275 281 285 286 283 277 273 268 264 263 264 267 270 273 278 282 286 288 290 292 294 295 294 294 293 291 291 292 292 293 293 295 297 299 299 299 298 299 299 299 300 301 302 303 304 305
226 234 238 240 242 245 249 252 251 246 246 249 251 253 257 260 263 263 265 268 272 273 273 272 271 270 269 269 271 272 271 272 272 271 271 271 272 274 278 282 284 286 286 283 278 274 270 268 268 270 273 277 281 285 287 289 290 292 293 293 292 292 292 292 292 292 293 293 293 293 294 296 297 297 296 296 297 298 298 299 300 301 303 303 303
222 229 235 238 240 242 243 245 244 242 243 245 246 249 253 256 259 261 265 269 271 270 269 268 266 264 263 264 265 267 268 269 270 271 272 274 277 280 283 284 285 286 285 283 280 277 274 273 274 276 279 283 286 289 289 289 290 291 292 291 290 291 292 292 293 293 293 294 293 293 293 294 295 295 295 296 297 298 298 299 300 300 301 302 301
226 229 234 237 239 239 240 240 241 241 242 244 246 249 251 254 257 261 265 267 267 265 262 260 259 259 259 260 262 264 267 269 271 273 275 278 280 281 282 284 284 284 283 282 282 281 279 278 279 281 283 285 287 288 288 287 288 289 290 290 289 289 290 291 292 292 293 293 292 293 294 294 295 295 295 296 297 297 298 299 299 299 300 300 299
231 234 239 243 244 245 243 240 240 241 242 245 248 252 255 258 261 263 264 263 261 259 257 258 260 261 261 263 265 267 269 271 273 275 276 278 280 281 282 283 283 283 283 283 283 283 282 282 282 282 282 283 285 285 285 285 286 288 289 289 288 287 289 290 291 292 292 292 293 293 294 294 295 295 295 296 296 297 297 298 298 298 298 298 298
233 236 241 246 249 249 248 245 245 245 246 248 251 255 259 261 261 261 259 258 258 259 260 262 265 266 267 269 271 273 274 275 275 276 277 279 280 281 282 283 283 284 284 284 283 282 281 280 280 280 281 283 283 282 282 283 285 287 288 288 287 287 288 290 290 291 291 292 292 293 293 294 294 294 295 295 295 295 296 297 297 297 297 298 298
229 233 237 240 243 246 248 250 250 251 251 252 253 256 257 258 258 258 259 261 262 264 265 268 269 270 272 274 275 276 277 277 277 278 278 279 280 281 282 283 284 285 285 284 283 283 283 282 281 280 281 282 281 279 279 281 283 284 285 285 286 287 288 288 289 290 291 292 292 293 293 293 293 293 294 294 294 295 296 297 297 297 297 298 297
224 229 232 234 235 238 242 245 247 247 248 249 250 252 253 254 257 260 262 264 266 267 269 272 273 273 273 274 276 277 278 279 279 280 280 280 280 280 281 282 282 282 281 280 280 280 281 281 280 280 279 278 277 277 278 280 281 282 282 283 285 286 287 288 289 290 292 292 293 293 293 293 293 293 293 293 294 295 296 296 296 296 297 298 297
222 225 226 228 230 233 236 239 242 243 244 244 246 249 252 256 259 262 264 266 268 270 272 273 273 273 272 272 273 273 273 274 274 275 276 277 277 277 278 279 279 278 277 277 277 277 277 277 277 277 277 275 275 276 278 279 280 282 283 284 285 287 287 289 291 292 292 293 293 293 293 293 294 293 292 293 294 295 295 295 295 296 297 297 296
221 223 224 226 229 232 235 239 243 246 248 249 250 251 253 256 259 262 264 266 268 270 271 271 271 271 271 271 270 270 269 269 269 269 270 271 272 273 274 274 275 275 275 274 274 274 275 275 274 274 275 276 277 278 279 281 282 284 285 285 287 288 289 290 291 292 292 292 293 293 294 293 293 292 292 293 295 295 295 295 295 296 297 296 295
222 224 226 229 230 233 235 238 242 246 248 250 252 254 256 258 260 263 265 267 268 269 269 270 269 269 269 268 268 268 268 269 269 269 270 271 272 272 273 273 273 274 274 274 274 275 276 277 277 277 278 278 279 280 282 283 284 285 285 287 288 289 290 291 291 291 291 291 291 292 292 291 290 291 292 293 294 294 295 296 296 297 297 296 296
225 226 228 230 232 234 236 238 241 243 245 247 248 252 255 258 261 263 266 268 269 269 269 269 268 267 267 267 267 267 268 268 269 270 271 272 273 273 273 274 274 275 275 276 277 277 278 279 280 280 280 280 281 282 283 284 285 286 287 288 289 290 291 291 291 291 291 291 291 291 291 290 291 291 292 293 294 295 296 297 297 297 297 297 297
228 230 232 234 236 237 238 239 242 244 247 249 250 251 252 255 258 261 263 264 264 264 265 266 266 265 265 264 265 265 266 266 267 267 268 269 270 271 271 272 273 274 275 275 276 277 278 279 280 280 281 281 282 283 284 285 286 287 288 289 289 290 290 291 291 291 291 291 291 292 292 293 294 294 294 294 295 295 295 296 296 296 296 296 296
229 231 233 236 239 241 242 243 245 246 248 249 251 252 252 253 255 258 259 260 259 258 258 259 260 260 261 261 261 262 263 264 265 265 266 267 269 270 270 272 273 274 275 276 278 279 280 281 281 281 282 283 284 285 286 287 287 288 288 289 289 290 290 290 290 290 290 290 291 291 292 293 293 294 294 294 294 294 294 294 294 294 294 294 294
227 230 232 235 237 240 242 244 245 246 247 248 250 252 253 254 255 256 257 258 258 257 257 257 257 258 259 260 261 263 264 265 266 267 268 269 270 271 272 273 275 276 277 278 279 280 281 281 282 282 283 285 286 287 287 287 288 288 288 289 290 290 290 291 290 290 291 291 291 292 292 292 292 292 292 292 292 293 293 293 293 293 293 293 293
228 230 232 234 236 238 240 242 243 245 246 248 249 250 252 253 254 255 255 256 257 258 258 258 259 259 260 261 262 264 265 266 267 268 269 270 271 272 273 275 276 277 278 279 280 281 281 282 283 283 284 285 286 286 287 288 289 289 289 290 290 290 291 291 292 292 292 292 292 292 292 292 292 291 291 291 291 291 291 290 291 291 291 292 292
231 232 233 234 236 238 239 240 242 244 245 247 248 249 250 251 252 253 254 255 256 257 258 259 259 260 260 261 262 263 264 265 267 268 269 270 272 273 274 276 277 278 279 281 281 282 283 283 284 285 285 286 287 288 289 289 290 290 290 289 289 289 290 291 292 292 292 292 292 292 292 292 291 291 291 291 290 289 289 289 289 289 289 289 289
234 234 234 235 236 238 239 241 242 242 243 244 245 247 248 249 251 252 252 253 254 256 257 258 259 260 260 261 262 263 265 266 268 269 271 272 274 275 277 279 280 281 282 282 283 283 284 285 286 286 287 288 289 290 290 290 290 290 290 289 289 289 289 290 291 291 291 291 291 291 291 291 291 291 291 290 289 288 288 288 288 288 288 287 288
238 238 238 238 238 238 240 241 243 244 244 244 245 246 248 249 251 252 254 255 256 257 259 260 261 262 263 264 265 266 268 269 271 273 275 276 278 279 280 281 281 282 283 283 284 285 285 286 287 288 289 290 290 291 291 291 291 290 290 290 289 289 289 290 290 290 291 291 291 291 291 291 291 291 291 290 289 288 288 287 287 287 287 286 287
239 241 242 242 242 243 243 244 245 247 247 248 249 250 251 252 254 256 257 259 260 262 263 264 265 266 267 268 269 270 272 274 275 277 278 279 280 280 281 281 282 283 283 284 285 285 286 287 288 289 289 290 290 290 291 290 290 290 290 289 289 289 289 289 289 290 290 291 291 291 291 291 291 291 290 289 289 288 287 287 287 286 286 286 286
240 241 242 244 245 246 247 248 249 250 251 252 253 254 255 256 257 259 260 262 263 264 265 266 267 268 269 270 272 273 275 276 277 277 278 279 279 280 281 282 283 283 284 284 285 285 286 287 287 288 288 289 289 289 290 290 290 289 289 289 288 288 288 289 289 290 290 291 291 291 291 291 291 290 289 289 288 288 288 287 287 286 286 285 285
241 241 242 243 244 246 247 248 250 251 252 254 255 256 257 258 259 260 261 262 263 264 265 266 267 268 270 271 273 274 275 275 276 277 278 279 280 281 281 282 283 283 284 284 285 285 286 286 287 287 288 288 288 289 289 289 289 289 289 289 289 289 289 290 290 290 291 291 291 291 290 290 289 288 288 288 287 287 287 287 287 286 285 284 284
241 242 243 243 244 245 247 248 249 251 252 254 255 256 257 259 259 260 261 262 263 264 266 267 269 270 272 273 274 275 276 276 277 278 279 279 280 281 282 282 283 283 284 284 285 285 285 286 286 287 287 287 288 288 288 288 289 289 289 290 290 290 291 291 291 291 291 291 291 290 289 289 288 288 287 287 287 286 286 286 285 285 284 284 283
241 242 243 244 245 246 247 248 249 251 252 254 255 257 258 259 260 262 263 264 265 266 267 269 270 271 272 273 274 275 276 277 278 279 280 280 281 282 282 282 282 283 283 283 283 284 285 285 286 286 287 287 287 288 288 288 289 289 290 291 291 292 292 292 291 291 291 290 290 289 289 288 288 288 287 287 286 285 285 285 284 284 283 283 283
243 244 244 245 246 247 248 249 250 251 252 254 255 257 259 260 261 263 264 265 266 267 268 269 270 271 272 273 274 275 277 277 278 279 279 280 280 280 280 280 280 281 281 282 283 284 284 285 285 286 286 287 287 288 289 289 290 291 292 292 292 292 292 292 291 291 290 290 289 289 289 289 288 288 287 287 286 285 284 284 283 283 283 282 282
245 246 246 247 248 249 249 250 251 252 254 255 256 257 259 260 262 263 264 265 266 267 268 269 270 271 272 273 274 275 276 277 277 277 277 277 278 278 278 279 279 280 281 282 283 283 284 284 285 286 287 287 289 290 291 292 292 293 293 293 293 293 292 292 292 291 290 290 290 289 289 289 288 288 287 286 285 285 285 284 284 283 282 281 281
247 248 248 249 250 251 252 253 254 255 255 256 257 258 259 260 262 263 264 265 266 267 268 269 270 271 272 273 273 274 274 275 275 276 277 277 278 278 279 279 280 280 281 282 282 283 284 284 285 287 288 289 291 292 293 293 293 293 293 294 294 294 293 293 292 292 291 290 290 289 289 288 287 286 286 286 285 285 285 285 284 283 282 281 281
249 250 250 251 252 252 253 254 255 256 257 258 259 260 260 261 262 263 264 265 266 267 268 269 270 270 271 272 272 273 273 274 275 275 276 277 278 279 279 280 280 281 281 282 283 284 285 286 287 289 290 291 292 293 293 293 294 294 295 295 294 294 293 293 292 292 291 291 290 289 288 287 286 286 286 286 286 286 285 284 283 282 281 281 281
249 250 251 252 252 253 254 254 255 256 257 258 259 260 260 261 262 263 264 265 266 267 268 269 270 271 272 272 273 274 274 275 276 277 277 278 279 279 280 280 281 282 282 283 284 285 286 288 289 290 291 292 293 293 294 294 295 295 295 294 294 293 292 292 291 291 291 290 290 289 289 288 287 287 287 287 286 285 284 283 282 281 281 281 279
249 250 251 252 252 253 254 255 256 256 257 258 259 260 260 261 262 263 265 266 267 268 269 270 271 272 272 273 274 275 276 276 277 277 277 278 278 279 280 280 281 282 283 284 285 286 288 289 290 291 292 292 293 294 294 294 294 293 293 293 292 292 291 291 290 290 290 289 289 289 288 287 287 287 287 287 286 284 282 281 281 280 280 278 277
250 250 251 251 252 253 254 255 256 257 258 258 259 260 261 262 263 264 265 265 266 267 268 269 270 270 271 272 273 274 274 275 276 276 277 277 278 279 280 281 282 283 284 285 286 287 288 289 291 291 292 293 293 293 293 292 292 292 291 291 291 291 290 290 289 289 289 289 289 288 287 287 287 287 287 286 284 282 281 280 280 279 278 276 276
251 251 252 252 253 253 254 255 255 256 257 258 259 260 261 262 263 264 264 265 266 267 267 268 268 269 270 270 271 272 272 273 274 275 276 277 278 279 280 281 282 284 285 286 287 288 289 290 291 291 291 291 291 291 291 291 291 290 290 290 290 290 289 289 288 288 288 288 288 287 287 287 288 288 287 285 283 282 280 279 278 278 277 276 275
251 252 252 253 253 254 255 255 256 257 257 258 259 260 261 262 263 263 264 265 265 266 267 267 268 268 269 270 271 271 272 273 274 275 276 277 278 280 281 282 284 285 286 287 288 289 289 289 290 290 290 290 290 290 290 290 290 290 289 289 289 289 288 288 288 288 288 288 288 287 287 287 288 287 287 285 283 281 280 279 278 277 276 275 275
250 251 252 252 253 254 254 255 256 257 257 258 259 260 260 261 262 263 264 264 265 266 266 267 268 269 269 270 271 272 273 274 275 276 277 279 280 281 282 284 285 285 286 286 287 287 288 288 289 289 289 289 289 289 289 289 289 289 289 289 289 288 288 288 288 288 288 288 288 287 287 288 288 287 286 285 283 281 280 278 277 276 275 274 272
250 251 252 252 253 254 254 255 256 256 257 258 259 259 260 261 262 263 264 264 265 266 267 268 269 270 271 272 273 274 275 276 277 278 279 280 281 282 283 283 284 284 285 285 286 287 287 287 288 288 288 288 288 288 289 289 288 288 288 288 288 288 287 287 288 288 288 288 288 287 287 287 287 287 286 284 283 281 280 278 276 275 273 272 270
249 250 251 252 253 254 255 255 256 257 258 258 259 260 261 262 262 263 264 265 266 267 268 269 270 271 272 273 274 275 276 277 278 279 279 280 281 281 282 282 283 284 284 285 285 286 286 286 286 286 287 287 288 288 288 288 288 288 288 288 288 287 287 287 287 288 288 288 288 288 287 287 287 286 285 284 282 281 279 277 275 274 272 270 268
249 249 250 251 251 252 253 254 255 256 257 258 259 260 261 262 263 264 265 265 266 267 268 269 270 271 272 273 274 274 275 276 277 278 279 279 280 281 281 282 283 283 284 284 284 285 285 285 285 286 287 287 287 288 288 288 288 288 288 288 287 287 286 287 287 288 288 288 288 287 287 287 287 286 284 283 281 279 278 276 274 273 271 269 267
252 252 252 252 252 252 253 253 254 255 256 257 258 259 260 261 262 262 263 264 265 266 267 268 269 270 271 272 273 274 275 276 277 278 279 280 280 281 281 282 282 282 282 283 283 284 284 284 285 286 286 287 287 287 288 288 288 288 288 288 287 287 287 287 288 288 288 288 288 287 287 287 286 285 283 281 280 278 277 275 274 272 270 267 266
254 254 254 254 254 254 254 255 255 255 256 257 257 258 259 260 261 262 263 264 265 266 267 268 269 270 272 273 274 275 276 276 277 278 279 279 279 280 280 281 281 281 281 282 282 283 283 284 285 286 286 286 287 287 288 288 288 288 288 288 287 287 287 288 288 288 288 288 288 287 287 286 285 284 282 280 278 277 275 274 272 270 268 267 266
254 254 254 255 255 255 256 256 257 257 258 258 259 260 261 262 262 263 264 265 266 267 269 270 271 272 273 273 274 275 275 276 277 277 278 278 279 279 279 279 280 280 280 281 282 282 283 284 285 286 286 287 287 288 288 288 288 288 288 288 288 287 288 288 288 288 288 288 288 287 286 285 283 282 281 279 277 276 274 272 271 269 268 267 266
254 254 255 255 256 256 257 257 258 259 259 260 260 261 262 262 263 264 265 266 268 269 270 271 271 272 273 273 274 274 275 275 276 276 277 277 278 278 278 279 279 279 280 281 282 282 283 285 286 287 287 288 289 289 289 289 288 288 288 288 288 288 288 288 287 287 287 287 286 285 284 283 281 280 279 277 276 274 273 271 269 268 267 267 266
254 255 255 256 256 257 257 258 258 259 259 260 261 261 262 263 264 265 266 267 268 269 270 270 271 271 271 272 272 273 274 274 275 275 276 277 277 278 278 279 279 280 280 281 282 283 284 285 286 287 288 289 289 290 290 289 288 288 288 288 287 287 287 287 286 286 286 286 285 284 282 281 279 278 277 275 274 272 271 270 268 267 266 266 266
254 254 255 255 256 256 257 257 258 258 259 260 260 261 262 263 264 265 266 267 267 268 268 269 269 270 270 271 272 273 273 274 275 275 276 277 277 278 278 279 280 280 281 282 284 285 286 286 287 287 288 288 289 289 289 288 288 288 287 287 287 286 286 286 285 285 285 285 284 283 281 280 278 276 275 273 272 271 269 268 267 266 265 265 265
Height
10628 10628 10630 10632 10633 10635 10636 10637 10638 10638 10640 10641 10642 10643 10643 10643 10642 10642 10643 10643 10643 10643 10643 10644 10645 10645 10647 10648 10649 10650 10650 10651 10651 10652 10653 10653 10654 10654 10654 10654 10654 10654 10654 10654 10654 10654 10654 10653 10652 10652 10651 10651 10651 10651 10652 10652 10652 10651 10649 10648 10646 10645 10645 10643 10642 10641 10639 10638 10637 10636 10635 10635 10634 10633 10631 10630 10628 10626 10624 10622 10620 10619 10616 10614 10612
10625 10626 10627 10627 10628 10629 10630 10632 10633 10633 10634 10636 10637 10637 10638 10637 10637 10638 10639 10638 10638 10639 10639 10639 10640 10640 10642 10643 10644 10645 10646 10646 10647 10648 10648 10648 10649 10649 10650 10650 10650 10650 10650 10650 10650 10650 10649 10649 10648 10648 10647 10647 10647 10646 10647 10647 10648 10647 10645 10644 10642 10641 10640 10639 10637 10636 10634 10633 10632 10632 10631 10630 10629 10628 10626 10624 10622 10620 10618 10616 10614 10612 10611 10608 10606
10621 10622 10622 10623 10624 10624 10625 10627 10627 10628 10630 10631 10632 10632 10632 10632 10633 10634 10634 10634 10634 10634 10634 10634 10635 10636 10637 10637 10638 10639 10640 10641 10642 10643 10643 10644 10644 10645 10645 10645 10646 10645 10645 10646 10645 10645 10645 10644 10644 10643 10643 10643 10642 10642 10642 10642 10642 10641 10640 10639 10638 10637 10636 10634 10633 10631 10630 10629 10628 10627 10626 10625 10623 10622 10620 10618 10616 10613 10611 10609 10607 10606 10604 10602 10600
10617 10617 10618 10619 10619 10619 10620 10621 10622 10623 10624 10626 10626 10627 10627 10627 10628 10629 10630 10630 10630 10630 10630 10630 10630 10631 10632 10632 10633 10634 10635 10636 10637 10638 10638 10639 10639 10640 10640 10641 10641 10641 10641 10641 10641 10641 10640 10640 10639 10639 10639 10639 10638 10637 10637 10637 10636 10635 10634 10633 10632 10631 10630 10629 10628 10626 10625 10624 10623 10621 10620 10619 10617 10615 10613 10611 10609 10607 10605 10602 10600 10598 10597 10595 10593
10612 10613 10613 10614 10614 10614 10615 10616 10617 10617 10618 10620 10621 10621 10621 10622 10623 10624 10625 10625 10625 10625 10626 10626 10626 10626 10626 10627 10628 10629 10630 10631 10632 10632 10633 10634 10635 10635 10635 10636 10636 10636 10636 10636 10636 10636 10636 10635 10635 10635 10635 10634 10633 10632 10632 10631 10631 10630 10629 10628 10627 10625 10624 10623 10622 10620 10619 10618 10617 10615 10614 10612 10610 10609 10607 10605 10602 10600 10598 10595 10593 10591 10590 10588 10586
10609 10609 10609 10610 10610 10610 10611 10612 10612 10612 10613 10615 10615 10615 10616 10618 10619 10619 10620 10620 10621 10621 10621 10621 10621 10621 10621 10622 10623 10624 10625 10625 10626 10627 10628 10629 10630 10630 10630 10631 10631 10631 10631 10631 10631 10631 10631 10631 10631 10631 10630 10629 10628 10627 10627 10626 10625 10625 10624 10622 10621 10619 10618 10617 10616 10614 10612 10611 10610 10609 10607 10605 10603 10602 10600 10597 10595 10593 10591 10588 10586 10585 10583 10581 10578
10606 10606 10606 10607 10606 10606 10607 10607 10607 10607 10608 10609 10610 10610 10611 10613 10614 10614 10614 10615 10616 10616 10616 10616 10616 10616 10615 10616 10617 10618 10618 10619 10620 10621 10622 10623 10624 10624 10625 10625 10625 10626 10626 10626 10626 10626 10627 10627 10628 10628 10626 10624 10623 10622 10622 10621 10620 10619 10618 10616 10615 10613 10611 10610 10609 10607 10606 10604 10603 10601 10600 10598 10597 10595 10593 10591 10588 10587 10585 10582 10580 10579 10576 10574 10571
10603 10602 10602 10602 10601 10601 10602 10602 10603 10603 10603 10604 10605 10606 10606 10607 10608 10609 10609 10610 10610 10611 10612 10611 10611 10611 10610 10610 10610 10611 10612 10613 10614 10615 10616 10617 10618 10618 10619 10619 10620 10620 10620 10620 10620 10621 10622 10622 10624 10624 10621 10618 10617 10617 10617 10615 10614 10613 10611 10610 10609 10607 10605 10604 10602 10601 10599 10597 10596 10594 10593 10591 10589 10588 10586 10585 10583 10581 10579 10576 10574 10572 10570 10567 10565
10599 10598 10596 10595 10596 10597 10597 10598 10599 10600 10600 10599 10599 10600 10601 10602 10603 10603 10604 10605 10605 10606 10606 10607 10607 10606 10606 10605 10605 10606 10607 10608 10608 10609 10610 10611 10612 10613 10613 10614 10614 10614 10614 10614 10614 10614 10615 10617 10618 10618 10615 10612 10612 10611 10610 10608 10607 10606 10604 10603 10601 10600 10599 10597 10595 10594 10592 10590 10589 10587 10585 10584 10583 10582 10580 10579 10577 10575 10572 10569 10566 10565 10563 10559 10557
10595 10592 10589 10590 10591 10592 10592 10593 10594 10595 10595 10594 10594 10595 10596 10596 10597 10598 10599 10599 10599 10600 10601 10602 10603 10603 10602 10602 10602 10602 10602 10603 10604 10604 10604 10605 10606 10607 10607 10607 10607 10607 10607 10607 10607 10607 10608 10609 10610 10610 10608 10606 10605 10604 10602 10601 10600 10598 10597 10596 10594 10593 10592 10590 10589 10587 10585 10584 10582 10580 10579 10578 10577 10576 10573 10571 10570 10568 10565 10562 10558 10556 10554 10551 10548
10588 10584 10582 10584 10586 10587 10588 10588 10589 10590 10590 10590 10590 10591 10591 10592 10593 10593 10594 10594 10594 10595 10596 10597 10598 10598 10599 10598 10598 10598 10598 10598 10599 10599 10599 10600 10600 10600 10600 10600 10600 10600 10600 10600 10600 10601 10601 10601 10602 10601 10600 10598 10597 10596 10595 10593 10592 10591 10589 10588 10587 10586 10585 10583 10582 10581 10579 10578 10576 10574 10573 10572 10570 10568 10565 10563 10561 10559 10556 10554 10551 10547 10545 10543 10540
10579 10577 10577 10580 10581 10582 10583 10583 10584 10585 10586 10586 10586 10587 10588 10588 10589 10589 10589 10589 10589 10590 10591 10592 10592 10593 10594 10594 10594 10593 10593 10593 10593 10593 10593 10593 10593 10594 10593 10593 10593 10593 10593 10593 10593 10593 10593 10594 10593 10593 10592 10591 10590 10589 10587 10586 10584 10583 10582 10581 10580 10579 10578 10577 10576 10575 10573 10571 10569 10567 10566 10563 10562 10559 10557 10554 10552 10550 10547 10545 10543 10540 10537 10535 10532
10572 10572 10574 10575 10575 10577 10578 10579 10579 10580 10581 10582 10582 10582 10582 10583 10583 10584 10584 10584 10584 10585 10585 10586 10587 10587 10588 10588 10588 10588 10588 10588 10588 10588 10587 10587 10587 10587 10587 10587 10587 10587 10587 10587 10587 10586 10586 10586 10586 10585 10585 10584 10583 10582 10580 10579 10578 10576 10575 10574 10573 10573 10572 10570 10569 10568 10566 10564 10562 10559 10557 10555 10552 10549 10547 10545 10543 10540 10538 10536 10534 10531 10529 10527 10524
10568 10568 10569 10570 10571 10571 10572 10572 10572 10574 10576 10577 10577 10576 10575 10577 10577 10578 10578 10578 10578 10579 10579 10579 10580 10581 10581 10581 10582 10582 10582 10583 10583 10582 10582 10581 10581 10581 10581 10581 10581 10581 10581 10580 10580 10580 10579 10579 10579 10578 10577 10577 10576 10574 10573 10572 10571 10570 10569 10568 10567 10566 10565 10563 10562 10560 10559 10556 10554 10551 10548 10546 10543 10539 10537 10535 10533 10531 10529 10527 10525 10522 10520 10519 10516
10563 10563 10564 10566 10566 10566 10565 10566 10567 10569 10570 10571 10571 10570 10570 10570 10570 10571 10573 10573 10574 10574 10574 10574 10574 10574 10574 10575 10576 10576 10576 10576 10576 10576 10576 10575 10574 10574 10574 10573 10573 10573 10572 10572 10572 10572 10572 10571 10571 10570 10570 10569 10568 10567 10566 10566 10565 10563 10562 10561 10560 10559 10557 10556 10554 10552 10550 10548 10545 10542 10540 10537 10534 10530 10527 10525 10523 10521 10518 10516 10515 10512 10509 10509 10507
10558 10558 10559 10561 10561 10561 10561 10561 10562 10562 10563 10565 10565 10565 10564 10564 10564 10565 10567 10568 10569 10569 10569 10569 10569 10569 10568 10568 10568 10569 10569 10569 10569 10569 10569 10568 10568 10568 10567 10567 10567 10567 10566 10565 10565 10564 10564 10564 10563 10563 10563 10562 10561 10560 10559 10559 10557 10556 10555 10554 10552 10551 10549 10547 10545 10543 10541 10539 10536 10533 10529 10526 10523 10520 10517 10515 10512 10511 10509 10506 10503 10501 10499 10499 10497
10552 10553 10555 10556 10557 10557 10557 10556 10555 10556 10557 10559 10559 10559 10559 10559 10558 10560 10561 10563 10564 10564 10564 10564 10564 10563 10563 10563 10563 10564 10564 10563 10563 10562 10562 10562 10562 10561 10562 10561 10561 10561 10560 10560 10559 10559 10558 10558 10557 10557 10556 10555 10553 10552 10551 10551 10549 10548 10547 10545 10543 10541 10539 10538 10537 10534 10529 10527 10525 10522 10518 10515 10512 10509 10507 10504 10501 10499 10500 10498 10493 10491 10490 10489 10485
10546 10548 10549 10550 10551 10551 10551 10550 10550 10551 10551 10552 10553 10553 10553 10554 10554 10554 10556 10557 10558 10558 10558 10558 10558 10558 10558 10557 10558 10558 10558 10558 10558 10558 10557 10557 10556 10556 10556 10555 10554 10554 10554 10553 10553 10553 10552 10551 10551 10551 10549 10546 10544 10543 10542 10541 10539 10538 10536 10534 10533 10531 10529 10528 10528 10525 10519 10515 10513 10510 10508 10504 10501 10499 10496 10493 10490 10488 10488 10488 10483 10481 10481 10480 10475
10539 10541 10543 10544 10545 10545 10545 10545 10545 10545 10546 10547 10546 10546 10547 10548 10549 10549 10549 10550 10551 10552 10552 10552 10552 10552 10552 10551 10551 10551 10551 10552 10551 10551 10550 10550 10550 10549 10549 10548 10547 10546 10546 10545 10544 10544 10544 10543 10542 10541 10539 10536 10534 10533 10532 10530 10529 10527 10525 10524 10522 10520 10518 10517 10517 10515 10512 10506 10502 10501 10499 10495 10492 10490 10487 10484 10481 10478 10476 10475 10472 10469 10470 10468 10465
10532 10534 10536 10537 10538 10539 10540 10540 10540 10540 10540 10541 10541 10541 10541 10541 10541 10542 10542 10542 10543 10543 10544 10544 10544 10544 10544 10544 10544 10544 10544 10544 10544 10543 10543 10542 10542 10542 10541 10540 10539 10538 10538 10537 10535 10534 10535 10534 10533 10530 10527 10526 10523 10522 10521 10520 10518 10515 10513 10511 10510 10508 10507 10505 10503 10502 10501 10497 10493 10491 10489 10486 10483 10481 10478 10474 10471 10467 10464 10462 10459 10456 10456 10456 10453
10527 10529 10530 10531 10532 10533 10533 10534 10534 10534 10534 10535 10536 10536 10536 10535 10535 10536 10536 10537 10537 10537 10537 10537 10537 10537 10537 10537 10536 10536 10536 10536 10536 10536 10535 10535 10534 10534 10532 10531 10531 10530 10529 10527 10526 10525 10525 10526 10525 10518 10513 10514 10514 10513 10512 10510 10507 10505 10501 10499 10497 10496 10495 10494 10491 10488 10487 10485 10483 10479 10476 10474 10470 10468 10465 10462 10460 10457 10452 10448 10447 10443 10442 10443 10442
10522 10523 10524 10525 10526 10526 10527 10527 10528 10528 10528 10528 10529 10529 10530 10530 10530 10530 10530 10531 10532 10532 10532 10532 10531 10531 10531 10530 10530 10529 10529 10529 10529 10529 10528 10527 10527 10525 10524 10523 10522 10521 10520 10518 10517 10516 10514 10516 10516 10508 10501 10502 10502 10501 10500 10498 10496 10494 10490 10487 10485 10483 10482 10482 10480 10477 10474 10472 10471 10469 10467 10464 10460 10458 10455 10449 10447 10448 10442 10435 10435 10433 10430 10430 10430
10514 10516 10517 10518 10518 10519 10520 10520 10521 10521 10522 10522 10522 10522 10522 10523 10523 10523 10523 10523 10524 10525 10525 10525 10525 10525 10524 10524 10523 10522 10522 10522 10521 10521 10521 10520 10519 10517 10516 10514 10513 10512 10511 10509 10508 10506 10504 10504 10504 10499 10495 10493 10491 10489 10488 10486 10484 10482 10479 10476 10472 10469 10469 10468 10467 10465 10462 10460 10458 10456 10455 10454 10450 10449 10448 10440 10436 10439 10434 10425 10422 10421 10417 10417 10417
10507 10508 10510 10510 10511 10511 10512 10513 10514 10514 10515 10515 10515 10515 10515 10515 10515 10516 10516 10516 10516 10516 10517 10517 10517 10517 10517 10516 10515 10515 10514 10514 10513 10513 10512 10511 10510 10509 10507 10506 10504 10502 10501 10499 10497 10496 10494 10492 10490 10489 10487 10486 10483 10480 10477 10474 10472 10470 10466 10463 10460 10457 10456 10454 10452 10450 10448 10446 10445 10442 10441 10439 10435 10434 10436 10432 10427 10427 10425 10418 10413 10410 10406 10405 10404
10499 10500 10502 10503 10504 10505 10506 10506 10506 10506 10507 10507 10508 10508 10508 10508 10508 10509 10509 10508 10508 10508 10508 10508 10508 10507 10507 10507 10507 10506 10505 10505 10505 10503 10502 10501 10500 10499 10498 10496 10494 10492 10490 10489 10487 10484 10482 10480 10478 10477 10476 10474 10471 10469 10466 10462 10459 10457 10453 10451 10448 10446 10444 10441 10439 10436 10434 10433 10432 10429 10427 10425 10418 10415 10419 10420 10414 10411 10412 10409 10404 10400 10396 10393 10390
10490 10491 10494 10495 10497 10497 10498 10497 10498 10498 10499 10499 10499 10499 10500 10500 10500 10500 10500 10500 10500 10500 10500 10499 10499 10499 10498 10498 10498 10497 10496 10497 10496 10493 10492 10491 10491 10489 10488 10486 10484 10481 10479 10478 10475 10473 10470 10468 10466 10464 10463 10460 10458 10455 10452 10449 10445 10442 10439 10436 10435 10433 10431 10429 10426 10422 10421 10420 10418 10415 10414 10410 10403 10399 10401 10402 10397 10393 10395 10395 10392 10388 10383 10380 10378
10481 10482 10484 10486 10488 10488 10489 10488 10489 10489 10489 10490 10491 10491 10491 10491 10491 10491 10491 10491 10491 10491 10491 10490 10490 10489 10488 10488 10488 10487 10487 10487 10486 10483 10481 10480 10479 10478 10476 10475 10472 10470 10468 10466 10463 10460 10457 10454 10452 10450 10448 10446 10443 10441 10438 10435 10432 10428 10425 10422 10421 10419 10417 10415 10412 10408 10406 10405 10403 10401 10398 10394 10389 10385 10383 10382 10378 10375 10376 10378 10377 10373 10369 10366 10364
10472 10473 10474 10476 10477 10478 10479 10479 10479 10479 10479 10480 10481 10482 10482 10482 10482 10482 10482 10481 10481 10481 10481 10480 10479 10478 10477 10477 10476 10476 10477 10476 10475 10473 10472 10470 10468 10466 10465 10463 10460 10458 10456 10453 10451 10448 10445 10442 10439 10436 10434 10432 10429 10427 10425 10422 10419 10416 10413 10410 10408 10405 10403 10402 10398 10394 10390 10389 10387 10385 10382 10378 10374 10369 10365 10364 10361 10356 10357 10359 10358 10355 10354 10351 10349
10463 10463 10464 10465 10466 10467 10469 10470 10470 10470 10470 10470 10470 10471 10472 10472 10472 10472 10472 10471 10471 10470 10469 10469 10468 10466 10466 10465 10464 10464 10465 10465 10463 10462 10461 10459 10457 10455 10453 10451 10449 10446 10444 10441 10439 10436 10434 10431 10428 10425 10423 10420 10418 10415 10413 10410 10406 10403 10400 10397 10395 10392 10389 10387 10385 10382 10377 10373 10371 10368 10366 10363 10358 10352 10348 10347 10344 10339 10339 10341 10338 10337 10337 10335 10333
10453 10454 10455 10455 10456 10457 10458 10459 10460 10460 10460 10460 10460 10460 10461 10461 10462 10462 10461 10461 10460 10459 10458 10457 10457 10456 10455 10454 10454 10453 10453 10453 10452 10451 10449 10447 10445 10443 10441 10439 10437 10434 10432 10430 10427 10424 10422 10420 10417 10415 10412 10409 10406 10403 10400 10397 10394 10390 10386 10384 10381 10379 10376 10372 10369 10367 10363 10359 10355 10351 10348 10346 10343 10337 10333 10332 10328 10324 10323 10323 10321 10320 10319 10317 10317
10443 10444 10445 10446 10446 10447 10448 10449 10450 10450 10450 10450 10450 10450 10450 10451 10451 10451 10450 10450 10449 10449 10448 10447 10446 10445 10444 10443 10442 10441 10440 10439 10439 10438 10437 10436 10434 10431 10429 10427 10424 10422 10419 10417 10415 10412 10410 10408 10405 10403 10400 10397 10394 10391 10388 10384 10381 10377 10374 10370 10367 10364 10362 10359 10355 10350 10346 10342 10338 10333 10330 10329 10326 10321 10319 10316 10312 10310 10309 10307 10305 10304 10303 10301 10302
10433 10434 10435 10435 10436 10437 10438 10439 10439 10439 10439 10439 10439 10439 10439 10439 10439 10439 10439 10439 10438 10438 10438 10437 10436 10434 10433 10431 10430 10429 10427 10426 10426 10425 10424 10422 10421 10419 10417 10414 10412 10410 10407 10405 10403 10400 10398 10395 10392 10389 10386 10383 10380 10377 10374 10371 10368 10365 10362 10358 10354 10349 10345 10342 10339 10336 10330 10325 10321 10317 10314 10311 10308 10305 10303 10300 10297 10296 10295 10293 10291 10290 10289 10288 10288
10422 10423 10424 10425 10426 10427 10427 10428 10428 10428 10429 10429 10429 10429 10429 10428 10428 10428 10428 10428 10427 10427 10426 10425 10424 10422 10421 10420 10418 10417 10416 10415 10413 10412 10411 10410 10408 10407 10405 10402 10400 10398 10395 10393 10390 10387 10384 10381 10378 10375 10372 10369 10366 10362 10359 10356 10353 10350 10347 10344 10340 10335 10329 10324 10322 10320 10315 10309 10305 10302 10299 10296 10292 10289 10287 10285 10282 10281 10281 10280 10278 10277 10277 10276 10274
10411 10413 10413 10414 10415 10416 10417 10417 10418 10418 10419 10419 10419 10419 10419 10418 10418 10417 10417 10416 10416 10415 10414 10413 10412 10411 10410 10409 10407 10405 10404 10403 10401 10400 10399 10398 10397 10395 10393 10391 10388 10386 10383 10380 10377 10373 10370 10366 10362 10359 10357 10354 10351 10347 10344 10340 10336 10333 10330 10327 10323 10318 10313 10307 10303 10302 10299 10294 10290 10288 10285 10282 10278 10275 10273 10271 10269 10268 10267 10266 10266 10265 10264 10263 10262
10401 10402 10403 10404 10405 10406 10406 10407 10408 10408 10409 10409 10409 10409 10409 10408 10408 10407 10406 10405 10405 10404 10403 10402 10400 10400 10399 10398 10396 10394 10393 10391 10389 10387 10386 10385 10383 10382 10380 10378 10375 10373 10370 10367 10363 10360 10356 10352 10348 10345 10342 10339 10335 10332 10328 10324 10320 10316 10313 10310 10305 10301 10296 10291 10287 10284 10282 10279 10276 10274 10272 10269 10266 10263 10261 10259 10258 10256 10255 10255 10254 10253 10252 10251 10251
10390 10391 10392 10393 10394 10394 10395 10395 10396 10397 10397 10397 10397 10397 10397 10397 10397 10396 10395 10394 10394 10393 10392 10390 10388 10388 10388 10386 10384 10382 10381 10379 10376 10374 10372 10371 10369 10367 10366 10363 10361 10358 10355 10351 10348 10345 10341 10337 10334 10330 10327 10324 10320 10317 10313 10308 10304 10299 10295 10292 10288 10285 10280 10276 10272 10269 10267 10264 10262 10261 10259 10257 10255 10252 10251 10249 10248 10246 10245 10244 10243 10242 10241 10241 10241
10378 10379 10380 10381 10382 10382 10383 10383 10383 10384 10385 10385 10385 10385 10385 10385 10385 10385 10384 10383 10382 10381 10381 10379 10377 10375 10374 10372 10370 10369 10367 10365 10364 10361 10359 10357 10355 10353 10351 10348 10345 10342 10339 10336 10333 10330 10326 10323 10319 10316 10313 10309 10306 10302 10297 10293 10288 10284 10280 10276 10273 10270 10267 10263 10259 10256 10254 10252 10250 10248 10246 10245 10243 10241 10240 10240 10239 10237 10235 10233 10232 10231 10231 10232 10231
10367 10368 10369 10369 10369 10370 10371 10371 10371 10371 10372 10372 10372 10372 10372 10373 10373 10373 10372 10371 10370 10369 10369 10368 10366 10363 10361 10358 10356 10355 10353 10352 10350 10348 10346 10343 10341 10339 10337 10334 10331 10328 10325 10322 10319 10316 10312 10309 10306 10302 10299 10295 10291 10287 10283 10279 10275 10271 10267 10264 10261 10257 10254 10251 10248 10245 10243 10241 10239 10237 10235 10233 10232 10231 10231 10230 10229 10227 10225 10224 10223 10222 10222 10222 10221
10355 10356 10357 10357 10357 10358 10359 10359 10359 10359 10359 10360 10359 10359 10359 10360 10361 10360 10360 10359 10358 10357 10356 10355 10354 10351 10350 10348 10346 10344 10342 10340 10337 10335 10333 10330 10328 10327 10324 10321 10318 10315 10312 10309 10306 10303 10299 10296 10292 10289 10285 10281 10278 10274 10270 10266 10263 10259 10256 10253 10250 10246 10243 10240 10238 10235 10233 10231 10229 10227 10225 10223 10222 10222 10222 10221 10219 10217 10216 10215 10214 10214 10213 10212 10212
10342 10343 10343 10344 10344 10345 10345 10346 10347 10347 10347 10347 10347 10347 10347 10347 10347 10347 10346 10346 10345 10344 10343 10342 10340 10338 10337 10337 10336 10334 10332 10329 10327 10324 10322 10319 10317 10315 10312 10309 10306 10302 10299 10296 10292 10289 10286 10282 10279 10276 10272 10268 10265 10262 10258 10254 10251 10249 10246 10243 10239 10236 10233 10230 10227 10226 10223 10222 10220 10218 10215 10214 10213 10213 10212 10211 10210 10208 10207 10207 10206 10205 10205 10205 10204
10329 10330 10330 10330 10330 10331 10332 10333 10334 10334 10334 10334 10334 10334 10334 10334 10334 10333 10333 10332 10332 10330 10329 10328 10326 10325 10324 10324 10323 10321 10320 10318 10316 10313 10311 10309 10307 10304 10301 10298 10294 10290 10287 10283 10279 10276 10273 10269 10266 10263 10260 10256 10253 10250 10247 10244 10241 10238 10235 10232 10229 10226 10222 10220 10218 10216 10214 10213 10212 10209 10206 10205 10205 10204 10203 10202 10201 10199 10199 10198 10198 10198 10198 10197 10197
10316 10316 10317 10317 10317 10317 10318 10319 10320 10320 10320 10320 10320 10321 10321 10320 10320 10320 10319 10319 10318 10316 10315 10314 10313 10312 10311 10311 10310 10308 10307 10305 10303 10301 10299 10297 10295 10293 10289 10286 10282 10278 10274 10271 10268 10264 10261 10257 10254 10251 10248 10245 10242 10239 10236 10234 10231 10228 10225 10222 10220 10217 10213 10210 10209 10207 10205 10205 10203 10201 10198 10197 10196 10196 10195 10194 10192 10191 10191 10191 10190 10190 10190 10191 10191
10302 10303 10303 10304 10304 10305 10306 10306 10307 10307 10307 10307 10307 10307 10307 10307 10307 10307 10307 10306 10304 10303 10302 10301 10300 10299 10298 10298 10297 10296 10294 10292 10290 10289 10287 10285 10283 10280 10277 10274 10270 10266 10262 10259 10256 10253 10249 10246 10243 10240 10237 10234 10231 10229 10226 10224 10221 10218 10215 10213 10211 10208 10204 10202 10200 10199 10197 10196 10195 10193 10191 10190 10189 10188 10187 10186 10185 10184 10184 10183 10183 10183 10183 10184 10184
10288 10289 10290 10291 10291 10291 10292 10293 10293 10294 10294 10294 10294 10294 10294 10294 10295 10294 10294 10293 10292 10291 10290 10289 10287 10287 10286 10285 10284 10283 10281 10279 10278 10276 10274 10272 10270 10268 10265 10262 10258 10254 10250 10247 10244 10241 10239 10236 10233 10231 10228 10225 10222 10219 10217 10214 10212 10209 10207 10205 10203 10199 10196 10194 10193 10191 10190 10189 10187 10185 10184 10183 10182 10181 10180 10179 10178 10178 10177 10177 10177 10177 10177 10177 10177
10274 10275 10277 10278 10278 10278 10279 10280 10280 10281 10281 10281 10281 10281 10281 10282 10282 10282 10281 10281 10280 10279 10278 10277 10276 10275 10274 10273 10272 10270 10269 10267 10266 10264 10262 10260 10257 10255 10252 10249 10247 10243 10239 10236 10234 10232 10229 10227 10224 10221 10219 10216 10214 10211 10208 10206 10203 10201 10199 10197 10194 10191 10188 10187 10186 10184 10182 10181 10180 10178 10177 10176 10175 10174 10173 10172 10172 10171 10171 10171 10170 10170 10171 10171 10171
10260 10261 10262 10263 10264 10265 10266 10266 10267 10268 10268 10269 10269 10269 10269 10269 10269 10269 10269 10268 10268 10267 10267 10266 10265 10264 10263 10261 10260 10259 10257 10255 10253 10251 10249 10247 10245 10242 10240 10238 10236 10233 10229 10226 10224 10223 10220 10217 10215 10213 10210 10208 10205 10203 10200 10198 10195 10193 10191 10189 10187 10184 10181 10180 10179 10177 10175 10174 10173 10172 10170 10169 10168 10168 10167 10166 10165 10165 10165 10165 10164 10164 10165 10165 10165
10246 10247 10248 10249 10250 10251 10251 10252 10253 10254 10255 10256 10256 10256 10257 10257 10257 10256 10256 10256 10256 10256 10256 10255 10254 10253 10252 10250 10249 10247 10245 10243 10241 10239 10237 10235 10233 10231 10229 10228 10226 10224 10221 10218 10216 10214 10211 10208 10207 10205 10202 10199 10197 10195 10193 10190 10187 10185 10184 10181 10179 10177 10175 10173 10172 10171 10169 10167 10167 10165 10164 10163 10162 10161 10161 10160 10160 10159 10159 10159 10159 10159 10158 10158 10159
10232 10233 10234 10235 10236 10237 10238 10239 10240 10241 10242 10243 10244 10244 10245 10245 10244 10244 10244 10244 10244 10244 10244 10243 10242 10241 10240 10239 10237 10235 10233 10232 10230 10228 10226 10224 10223 10221 10220 10218 10217 10215 10212 10210 10208 10206 10203 10200 10198 10196 10193 10191 10188 10187 10185 10183 10180 10178 10176 10174 10172 10170 10169 10167 10166 10164 10163 10161 10160 10159 10158 10157 10156 10156 10155 10154 10154 10154 10154 10153 10153 10153 10152 10152 10153
10219 10220 10221 10223 10224 10225 10226 10227 10228 10229 10230 10231 10231 10232 10232 10232 10232 10232 10232 10232 10233 10232 10232 10231 10230 10229 10228 10227 10226 10224 10223 10222 10220 10218 10217 10215 10213 10211 10210 10209 10208 10207 10204 10201 10199 10198 10195 10193 10190 10188 10185 10183 10181 10179 10177 10175 10173 10171 10169 10167 10166 10164 10162 10161 10159 10158 10157 10156 10155 10154 10153 10152 10151 10150 10149 10149 10148 10148 10148 10148 10148 10147 10147 10147 10147
10208 10209 10210 10211 10212 10213 10214 10215 10216 10217 10218 10218 10219 10219 10220 10220 10221 10221 10221 10222 10221 10221 10220 10220 10219 10218 10218 10217 10216 10215 10213 10212 10210 10209 10208 10206 10204 10202 10201 10200 10199 10197 10195 10193 10191 10189 10188 10186 10183 10180 10178 10176 10174 10172 10170 10168 10166 10164 10163 10161 10159 10158 10156 10155 10153 10152 10151 10150 10149 10148 10147 10146 10146 10145 10144 10143 10143 10143 10143 10143 10143 10142 10142 10142 10142
10197 10198 10199 10200 10201 10201 10202 10203 10204 10205 10206 10207 10207 10208 10209 10209 10210 10210 10211 10211 10210 10210 10209 10209 10209 10208 10208 10207 10206 10205 10204 10202 10201 10200 10199 10198 10196 10194 10192 10191 10189 10188 10187 10185 10183 10181 10180 10178 10176 10174 10171 10169 10167 10166 10164 10162 10160 10158 10157 10155 10154 10152 10151 10149 10148 10147 10146 10145 10144 10143 10142 10141 10140 10139 10139 10138 10138 10138 10137 10137 10137 10137 10137 10137 10137